Overview Statistics Trail Chart Weather Telemetry Raw packets
 

This is the latest recevied weather packets stored in our database for station/object N7ZEF. If no packets are shown the sender has not sent any weather packets the latest 10 day(s).

<< 8 9 10 11 12 13 14 >>
Time Temp. Humidity Pressure Rain* Wind** Luminosity Snow
1778031497 0.56° C 100% 1013.8 hPa 0 mm - - -
1778030896 0.56° C 100% 1013.6 hPa 0 mm - - -
1778030294 0° C 100% 1013.5 hPa 0 mm - - -
1778029693 0.56° C 100% 1013.6 hPa 0 mm - - -
1778029092 0.56° C 100% 1013.5 hPa 0 mm - - -
1778028490 0.56° C 100% 1013.7 hPa 0.51 mm - - -
1778027889 1.11° C 99% 1013.7 hPa 0.51 mm - - -
1778027287 1.67° C 99% 1013.6 hPa 0.51 mm - - -
1778026686 1.67° C 99% 1013.6 hPa 0.51 mm - - -
1778026085 1.11° C 99% 1013.5 hPa 0.51 mm - - -
1778025483 1.11° C 99% 1013.5 hPa 0.51 mm - - -
1778024882 1.11° C 99% 1013.5 hPa 0 mm - - -
1778024280 1.67° C 99% 1013.5 hPa 0 mm - - -
1778023679 1.67° C 99% 1013.1 hPa 0 mm - - -
1778023078 1.67° C 98% 1013.1 hPa 0 mm - - -
1778022476 1.67° C 98% 1013.2 hPa 0 mm - - -
1778021875 1.67° C 97% 1013.1 hPa 0 mm - - -
1778021273 2.22° C 93% 1013 hPa 0 mm - - -
1778020672 2.78° C 85% 1013 hPa 0 mm - - -
1778020071 2.78° C 83% 1013 hPa 0 mm - - -
1778019469 3.33° C 82% 1012.8 hPa 0 mm - - -
1778018868 3.33° C 78% 1013 hPa 0 mm - - -
1778018267 3.33° C 76% 1013.1 hPa 0 mm - - -
1778017665 3.33° C 79% 1013.1 hPa 0 mm - - -
1778017064 3.33° C 77% 1013.2 hPa 0 mm - - -

* Rain latest hour (hover to see other rain measurements)
** Current wind speed in m/s (hover to see current wind gust speed)